C/2000 SV74 ( LINEAR )

Japanese version
Home page
Updated on March 26, 2005

---------------------------------------------------------------------

* Profile

Discovery Date September 24, 2000
Magnitude 17.8 mag
Discoverer Lincoln Laboratory Near-Earth Asteroid Research project

* Orbital Elements

Epoch 2002 May 6.0 TT = JDT 2452400.5
T 2002 Apr. 30.4970 TT                                  MPCN
q   3.541559             (2000.0)            P               Q
z  -0.001358       Peri.   76.2313      +0.1157156      -0.9108571
 +/-0.000001       Node    24.1855      -0.0769916      -0.4058726
e   1.004810       Incl.   75.2373      +0.9902940      +0.0748783
From 717 observations 2000 Sept. 5-2002 June 18, mean residual 0".7.

* Finding Charts

* Magnitudes Graph

        m1 = 3.0 + 5 log d + 12.5 log r

---------------------------------------------------------------------

The orbital elements are published at the MPC Ephemerides and Orbital Elements.
The charts are made with StellaNavigator Ver.2.0 for Windows (AstroArts / ASCII).
The magnitudes graphs are made with Comet for Windows.

---------------------------------------------------------------------

Copyright(C) Seiichi Yoshida (comet@aerith.net). All rights reserved.